Regional Weather Roundup
Issued by NWS Newport/Morehead, NC

Current Version | Previous Version | Text Only | Print | Product List | Glossary On
Versions: 1 2 3 4 5 6 7 8 9 10 11 12 13 14 15 16 17 18 19 20 21 22 23 24 25 26 27 28 29 30 31 32 33 34 35 36 37 38 39 40 41 42 43 44 45 46 47 48 49 50
000
ASUS42 KMHX 182225
RWRMHX
WEATHER ROUNDUP FOR EASTERN NORTH CAROLINA
NATIONAL WEATHER SERVICE NEWPORT/MOREHEAD CITY NC
500 PM EST WED JAN 18 2017

NOTE: "FAIR" INDICATES FEW OR NO CLOUDS BELOW 12,000 FEET
WITH NO SIGNIFICANT WEATHER AND/OR OBSTRUCTIONS TO VISIBILITY

NCZ015>017-031-032-045>047-102-103-182300-
NORTH COAST

CITY           SKY/WX    TMP DP  RH WIND       PRES   REMARKS
EDENTON        PTCLDY    57  47  69 CALM      29.99R
ELIZABETH CITY CLOUDY    53  45  74 NE7       29.97R
KITTY HAWK     NOT AVBL
MANTEO         CLOUDY    49  46  88 NE9       29.97R

$$

NCZ045>047-081-094-103-104-182300-
CENTRAL COAST

CITY           SKY/WX    TMP DP  RH WIND       PRES   REMARKS
FRISCO         PTCLDY    52  46  80 N10G20    29.95R

$$

NCZ095-097-098-100-101-182300-
SOUTHERN COAST

CITY           SKY/WX    TMP DP  RH WIND       PRES   REMARKS
BEAUFORT       CLEAR     57  45  64 NE14G22   29.97R
CEDAR ISLAND   NOT AVBL
JACKSONVILLE   CLEAR     68  39  34 NW14G22   29.94R
PINEY ISLAND   CLEAR    N/A N/A N/A NE16G24   29.95R
WILMINGTON     CLEAR     72  45  37 NW14      29.93R


$$

NCZ011>013-027>030-043-044-078>080-089-090>093-098-182300-
COASTAL PLAIN

CITY           SKY/WX    TMP DP  RH WIND       PRES   REMARKS
AHOSKIE          N/A     58  49  72 E3        29.98R
CLINTON        CLEAR     68  41  37 N7        29.97R
ELIZABETHTOWN  CLEAR     71  38  30 N3        29.96R
GOLDSBORO      CLEAR     66  33  29 NW14G20   29.96R
GREENVILLE     CLEAR     63  36  36 N9        29.99R
HAVELOCK       CLEAR     66  37  34 N18       29.95R
KENANSVILLE    CLEAR     66  37  34 W8        29.97R
KINSTON        CLEAR     64  34  32 NW9       29.97R
NEW BERN       CLEAR     65  37  35 N9        29.96R
RICHLANDS      CLEAR     67  39  35 NW7       29.96R
ROCKY MOUNT    CLEAR     63  36  36 NW8G20    29.98R
WASHINGTON       N/A     63  37  38 NW9         N/A
WHITEVILLE     CLEAR     72  44  36 W3        29.95R

$$

AMZ130-135-150-152-154-156-158-170-250-252-270-ANZ085-086-088-633-658-670-182300-
MARINE OBSERVATIONS

STATION/POSITION TIME  TEMP    WIND        PRES    WAVE   SWELL
                       AIR SEA DIR/SP/G            HT/PER HT/PER
                 (UTC) (F)     (DEG/KT/KT) (MB)    (FT/S) (FT/S)
CHESAPEAKE LIGHT NOT AVBL
64 E VA BEACH    2150   53 57  350/ 17/ 21 1013.5    5/ 4   2/ 8
DUCK             2200   47 46  350/ 11/ 12 1014.4
2 E DUCK         2200      46                N/A     3/ 4
OREGON INLET     2200   49 51   10/ 10/ 16 1014.7
13E OREGON INLT  NOT AVBL
HATTERAS CG      2200   51 55   10/ 20/ 24 1014.0
DIAMOND BUOY     2150   56 72   10/ 27/ 31 1013.1    7/ 5   2/11
CAPE LOOKOUT     2200   58      30/ 24/ 27 1014.0
BEAUFORT LAB     2200   57 51   50/ 13/ 18 1013.4
30 SE NEW RVR IN 2208   62 62  310/ 10/ 12 1013.9
30 SE NEW RVR IN 2213      62                N/A     5/ 6
27 SE WRIGHTSVLE 2208   65 68  300/  6/ 10 1013.6
5 SE WRIGHTSVLE  2108   64     320/ 10/ 16 1013.1
225 S CAPE HAT   2150   72 72  260/ 19/ 25 1013.0    9/ 7   2/10
41 SE CHARLESTON 2150   70 72  240/ 21/ 25 1014.1    5/ 5

$$




USA.gov is the U.S. government's official web portal to all federal, state and local government web resources and services.